Location: Unnamed
(48.8836°N, 1.0859°W)
Time: 14:32:52
(UTC+02:00)

ISS - Pass Details

Date: 29 September 2021
Orbit: 417 x 423 km, 51.6° (Epoch: 16 October)

Event Time Altitude Azimuth Distance (km) Brightness Sun altitude
Rises 21:45:19 0° 290° (WNW) 2,367 1.7 -20.0°
Reaches altitude 10° 21:47:25 10° 289° (WNW) 1,502 0.3 -20.3°
Enters shadow 21:50:36 70° 237° (WSW) 449 -3.6 -20.8°
